Weather observations for the past three days for
Versailles Darke County Airport
Imperial (Metric)
Date Time (edt) Wind (mph) Vis. (mi.) Weather Sky Cond. Temperature (ºF) Relative Humidity Wind Chill (°F) Heat Index (°F) Pressure Precipitation (in)
Air Dwpt 6 hour altimeter (in) sea level (mb) 1 hr 3 hr 6 hr
Max. Min.
20 18:50 W 10 7.00 Fair CLR 89.6 60.8 38% 90 30.24 0.0
20 18:30 SW 6 5.00 Fair CLR 89.6 60.8 38% 90 30.24 0.0
20 18:10 W 9 7.00 Partly Cloudy SCT055 89.6 60.8 38% 90 30.24 0.0
20 17:50 W 9 10.00 Partly Cloudy SCT055 89.6 60.8 38% 90 30.24 0.0
20 17:30 Calm 7.00 Partly Cloudy SCT055 91.4 59 34% 91 30.24 0.0
20 17:10 SW 8 10.00 Partly Cloudy SCT055 89.6 60.8 38% 90 30.25 0.0
20 16:50 SW 7 10.00 Partly Cloudy SCT055 91.4 59 34% 91 30.25 0.0
20 16:30 W 8 10.00 Partly Cloudy SCT055 91.4 59 34% 91 30.26 0.0
20 16:10 SW 7 5.00 Partly Cloudy SCT055 SCT075 91.4 60.8 36% 91 30.27 0.0
20 15:50 W 3 10.00 Partly Cloudy SCT055 SCT075 91.4 59 34% 91 30.27 0.0
20 15:30 Calm 7.00 Fair CLR 89.6 60.8 38% 90 30.28 0.0
20 15:10 SW 5 10.00 Fair CLR 91.4 62.6 38% 92 30.28 0.0
20 14:50 Calm 7.00 Fair CLR 89.6 60.8 38% 90 30.29 0.0
20 14:30 W 3 10.00 Partly Cloudy SCT046 89.6 62.6 41% 90 30.3 0.0
20 14:10 W 5 10.00 Fair CLR 87.8 62.6 43% 88 30.31 0.0
20 13:50 W 7 10.00 Partly Cloudy SCT045 89.6 62.6 41% 90 30.31 0.0
20 13:30 NW 6 7.00 Fair CLR 89.6 64.4 43% 91 30.32 0.0
20 13:10 N 6 10.00 Fair CLR 87.8 64.4 46% 89 30.32 0.0
20 12:50 NW 3 10.00 Fair CLR 87.8 64.4 46% 89 30.33 0.0
20 12:30 W 8 10.00 Fair CLR 86 64.4 49% 87 30.33 0.0
20 12:10 W 6 10.00 Fair CLR 86 66.2 52% 88 30.33 0.0
20 11:50 W 5 10.00 Fair CLR 86 64.4 49% 87 30.33 0.0
20 11:30 NW 8 10.00 Partly Cloudy SCT050 SCT065 86 64.4 49% 87 30.34 0.0
20 11:10 W 6 10.00 Partly Cloudy SCT050 84.2 64.4 51% 86 30.33 0.0
20 10:50 NW 8 10.00 Partly Cloudy SCT050 86 66.2 52% 88 30.33 0.0
20 10:30 W 9 10.00 Partly Cloudy SCT050 82.4 66.2 58% 85 30.33 0.0
20 10:10 W 8 10.00 Fair CLR 82.4 66.2 58% 85 30.33 0.0
20 09:50 W 9 10.00 Fair CLR 82.4 66.2 58% 85 30.33 0.0
20 09:30 NW 8 10.00 Fair CLR 80.6 66.2 62% 83 30.32 0.0
20 09:10 W 3 10.00 Fair CLR 80.6 68 66% 83 30.32 0.0
20 08:50 W 7 10.00 Fair CLR 78.8 68 70% 81 30.32 0.0
20 08:30 Calm 10.00 Fair CLR 78.8 68 70% 81 30.32 0.0
20 08:10 Calm 10.00 Fair CLR 77 69.8 79% 79 30.32 0.0
20 07:50 Calm 10.00 Fair CLR 77 69.8 79% 79 30.32 0.0
20 07:30 Calm 10.00 Partly Cloudy SCT050 SCT070 77 69.8 79% 79 30.31 0.0
20 07:10 Calm 10.00 Partly Cloudy SCT070 73.4 71.6 94% 30.31 0.0
20 06:50 Calm 7.00 Fair CLR 73.4 73.4 100% 30.31 0.0
20 06:30 Calm 10.00 Fair CLR 73.4 73.4 100% 30.3 0.0
20 06:10 Calm 10.00 Partly Cloudy SCT065 73.4 73.4 100% 30.29 0.0
20 05:50 Calm 10.00 Mostly Cloudy SCT049 BKN065 73.4 73.4 100% 30.29 0.0
20 05:30 Calm 10.00 Overcast BKN049 OVC065 73.4 73.4 100% 30.29 0.0
20 05:10 Calm 10.00 Overcast OVC065 73.4 71.6 94% 30.29 0.0
20 04:50 Calm 10.00 Mostly Cloudy SCT047 BKN065 73.4 71.6 94% 30.29 0.0
20 04:30 Calm 10.00 Overcast SCT047 OVC065 73.4 71.6 94% 30.29 0.0
20 04:10 Calm 10.00 Overcast OVC065 73.4 71.6 94% 30.29 0.0
20 03:50 Calm 10.00 Overcast OVC065 73.4 71.6 94% 30.29 0.0
20 03:30 Calm 10.00 Mostly Cloudy BKN065 73.4 71.6 94% 30.28 0.0
20 03:10 Calm 10.00 Partly Cloudy SCT065 73.4 69.8 89% 30.28 0.0
20 02:50 SE 3 10.00 Fair CLR 73.4 69.8 89% 30.28 0.0
20 02:30 Calm 10.00 Fair CLR 73.4 69.8 89% 30.28 0.0
20 02:10 Calm 10.00 Partly Cloudy SCT050 73.4 69.8 89% 30.28 0.0
20 01:50 Calm 10.00 Mostly Cloudy BKN050 73.4 69.8 89% 30.28 0.0
20 01:30 Calm 10.00 Partly Cloudy SCT039 SCT055 75.2 68 78% 76 30.28 0.0
20 01:10 Calm 10.00 Partly Cloudy SCT039 73.4 68 83% 30.28 0.0
20 00:50 Calm 10.00 Partly Cloudy SCT048 75.2 68 78% 76 30.27 0.0
20 00:30 Calm 10.00 Partly Cloudy SCT048 73.4 69.8 89% 30.28 0.0
20 00:10 Calm 10.00 Fair CLR 73.4 69.8 89% 30.27 0.0
19 23:50 Calm 10.00 Fair CLR 75.2 69.8 83% 75 30.27 0.0
19 23:30 SE 3 10.00 Fair CLR 75.2 68 78% 76 30.27 0.0
19 23:10 Calm 10.00 Fair CLR 75.2 69.8 83% 75 30.27 0.0
19 22:50 Calm 10.00 Fair CLR 77 69.8 79% 79 30.28 0.0
19 22:30 Calm 10.00 Fair CLR 77 66.2 69% 79 30.27 0.0
19 22:10 Calm 10.00 Fair CLR 78.8 64.4 61% 81 30.27 0.0
19 21:50 Calm 10.00 Fair CLR 78.8 66.2 65% 81 30.26 0.0
19 21:30 Calm 10.00 Fair CLR 80.6 64.4 58% 82 30.25 0.0
19 21:10 Calm 7.00 Fair CLR 82.4 66.2 58% 85 30.24 0.0
19 20:50 SW 5 7.00 Fair CLR 82.4 66.2 58% 85 30.24 0.0
19 20:30 Calm 10.00 Fair CLR 82.4 66.2 58% 85 30.24 0.0
19 20:10 SW 5 7.00 Thunderstorm in Vicinity CLR 86 64.4 49% 87 30.24 0.0
19 19:50 S 3 7.00 Fair CLR 87.8 64.4 46% 89 30.22 0.0
19 19:30 S 8 7.00 Fair CLR 87.8 62.6 43% 88 30.23 0.0
19 19:10 S 5 7.00 Fair CLR 87.8 62.6 43% 88 30.23 0.0
19 18:50 S 9 7.00 Partly Cloudy SCT050 89.6 62.6 41% 90 30.23 0.0
19 18:30 S 5 7.00 Mostly Cloudy BKN049 BKN060 89.6 62.6 41% 90 30.23 0.0
19 18:10 S 7 7.00 Mostly Cloudy BKN049 BKN065 89.6 62.6 41% 90 30.23 0.0
19 17:50 S 5 7.00 Mostly Cloudy BKN049 89.6 64.4 43% 91 30.23 0.0
19 17:30 SW 6 7.00 Mostly Cloudy BKN049 89.6 66.2 46% 92 30.24 0.0
19 17:10 Calm 7.00 Overcast BKN049 BKN060 OVC070 87.8 66.2 49% 90 30.24 0.0
19 16:50 Calm 10.00 Mostly Cloudy BKN049 BKN065 87.8 66.2 49% 90 30.24 0.0
19 16:30 Calm 7.00 Mostly Cloudy SCT049 BKN065 BKN075 89.6 66.2 46% 92 30.24 0.0
19 16:10 Calm 7.00 Partly Cloudy SCT049 SCT065 87.8 64.4 46% 89 30.24 0.0
19 15:50 Calm 7.00 Overcast SCT042 BKN050 OVC065 87.8 66.2 49% 90 30.25 0.0
19 15:30 W 5 10.00 Mostly Cloudy BKN042 BKN065 87.8 68 52% 91 30.25 0.0
19 15:10 Calm 10.00 Fair CLR 89.6 64.4 43% 91 30.25 0.0
19 14:50 W 7 7.00 Partly Cloudy SCT038 SCT060 SCT070 87.8 68 52% 91 30.24 0.0
19 14:30 Calm 10.00 Partly Cloudy SCT038 SCT060 87.8 69.8 55% 93 30.25 0.0
19 14:10 Calm 7.00 Partly Cloudy SCT040 SCT048 SCT060 87.8 69.8 55% 93 30.26 0.0
19 13:50 Calm 7.00 Mostly Cloudy SCT040 SCT048 BKN075 87.8 69.8 55% 93 30.26 0.0
19 13:30 Calm 10.00 Partly Cloudy SCT040 SCT065 87.8 68 52% 91 30.26 0.0
19 13:10 Calm 7.00 Mostly Cloudy BKN038 BKN065 BKN080 87.8 69.8 55% 93 30.26 0.0
19 12:50 Calm 10.00 Partly Cloudy SCT036 SCT043 SCT070 87.8 68 52% 91 30.26 0.0
19 12:30 Calm 10.00 Partly Cloudy SCT036 SCT070 87.8 69.8 55% 93 30.27 0.0
19 12:10 Calm 10.00 Fair CLR 87.8 68 52% 91 30.27 0.0
19 11:50 Calm 10.00 Fair CLR 87.8 69.8 55% 93 30.27 0.0
19 11:30 SW 3 10.00 Fair CLR 86 69.8 59% 91 30.27 0.0
19 11:10 S 3 10.00 Fair CLR 86 71.6 62% 92 30.28 0.0
19 10:50 Calm 10.00 Fair CLR 82.4 71.6 70% 87 30.27 0.0
19 10:30 Calm 10.00 Fair CLR 82.4 71.6 70% 87 30.27 0.0
19 10:10 SW 3 10.00 Fair CLR 80.6 71.6 74% 85 30.27 0.0
19 09:50 S 5 10.00 Fair CLR 78.8 71.6 79% 82 30.28 0.0
19 09:30 S 5 10.00 Fair CLR 78.8 71.6 79% 82 30.28 0.0
19 09:10 S 6 10.00 Fair CLR 78.8 71.6 79% 82 30.28 0.0
19 08:50 Calm 10.00 Fair CLR 78.8 71.6 79% 82 30.27 0.0
19 08:30 Calm 10.00 Fair CLR 77 71.6 83% 78 30.27 0.0
19 08:10 Calm 10.00 Fair CLR 77 71.6 83% 78 30.26 0.0
19 07:50 Calm 10.00 Fair CLR 75.2 71.6 89% 75 30.25 0.0
19 07:30 E 3 10.00 Fair CLR 73.4 71.6 94% 30.24 0.0
19 07:10 Calm 10.00 Fair CLR 73.4 71.6 94% 30.24 0.0
19 06:50 Calm 10.00 Fair CLR 73.4 71.6 94% 30.24 0.0
19 06:30 Calm 10.00 Fair CLR 73.4 71.6 94% 30.23 0.0
19 06:10 Calm 10.00 Fair CLR 73.4 71.6 94% 30.22 0.0
19 05:50 Calm 10.00 Fair CLR 73.4 71.6 94% 30.22 0.0
19 05:30 Calm 10.00 Fair CLR 71.6 71.6 100% 30.21 0.0
19 05:10 Calm 10.00 Fair CLR 73.4 69.8 89% 30.21 0.0
19 04:50 Calm 10.00 Fair CLR 73.4 69.8 89% 30.2 0.0
19 04:30 Calm 10.00 Fair CLR 73.4 69.8 89% 30.19 0.0
19 04:10 Calm 10.00 Fair CLR 73.4 69.8 89% 30.19 0.0
19 03:50 Calm 10.00 Fair CLR 71.6 69.8 94% 30.19 0.0
19 03:30 Calm 10.00 Fair CLR 73.4 69.8 89% 30.18 0.0
19 03:10 Calm 10.00 Fair CLR 73.4 69.8 89% 30.18 0.0
19 02:50 Calm 10.00 Fair CLR 73.4 69.8 89% 30.19 0.0
19 02:30 Calm 10.00 Fair CLR 73.4 69.8 89% 30.19 0.0
19 02:10 Calm 10.00 Fair CLR 73.4 69.8 89% 30.2 0.0
19 01:50 Calm 10.00 Fair CLR 73.4 69.8 89% 30.2 0.0
19 01:30 Calm 10.00 Fair CLR 73.4 69.8 89% 30.2 0.0
19 01:10 Calm 10.00 Fair CLR 73.4 69.8 89% 30.19 0.0
19 00:50 Calm 10.00 Fair CLR 75.2 68 78% 76 30.19 0.0
19 00:30 Calm 10.00 Fair CLR 75.2 68 78% 76 30.19 0.0
19 00:10 Calm 10.00 Fair CLR 75.2 69.8 83% 75 30.18 0.0
18 23:50 Calm 10.00 Fair CLR 75.2 68 78% 76 30.18 0.0
18 23:30 Calm 10.00 Fair CLR 77 69.8 79% 79 30.18 0.0
18 23:10 Calm 10.00 Fair CLR 77 69.8 79% 79 30.18 0.0
18 22:50 Calm 10.00 Fair CLR 77 68 74% 79 30.18 0.0
18 22:30 Calm 10.00 Fair CLR 77 68 74% 79 30.18 0.0
18 22:10 Calm 10.00 Fair CLR 78.8 66.2 65% 81 30.17 0.0
18 21:50 Calm 10.00 Fair CLR 78.8 66.2 65% 81 30.16 0.0
18 21:30 Calm 10.00 Fair CLR 80.6 66.2 62% 83 30.15 0.0
18 21:10 Calm 10.00 Fair CLR 80.6 66.2 62% 83 30.14 0.0
18 20:50 Calm 10.00 Fair CLR 80.6 68 66% 83 30.14 0.0
18 20:30 Calm 10.00 Fair CLR 82.4 64.4 55% 84 30.14 0.0
18 20:10 Calm 10.00 Fair CLR 82.4 64.4 55% 84 30.14 0.0
18 19:50 Calm 7.00 Fair CLR 82.4 64.4 55% 84 30.14 0.0
18 19:30 SW 5 7.00 Fair CLR 82.4 62.6 51% 83 30.14 0.0
18 19:10 W 6 10.00 Fair CLR 84.2 64.4 51% 86 30.14 0.0
18 18:50 W 7 10.00 Fair CLR 84.2 62.6 48% 85 30.14 0.0
18 18:30 W 6 10.00 Fair CLR 86 64.4 49% 87 30.14 0.0
18 18:10 W 7 10.00 Fair CLR 86 64.4 49% 87 30.14 0.0
18 17:50 W 7 7.00 Partly Cloudy SCT048 86 64.4 49% 87 30.15 0.0
18 17:30 SW 8 10.00 Fair CLR 87.8 64.4 46% 89 30.15 0.0
18 17:10 SW 7 10.00 Fair CLR 87.8 62.6 43% 88 30.15 0.0
18 16:50 SW 8 10.00 Partly Cloudy SCT049 SCT060 87.8 62.6 43% 88 30.15 0.0
18 16:30 SW 7 7.00 Partly Cloudy SCT049 SCT060 87.8 62.6 43% 88 30.16 0.0
18 16:10 W 10 10.00 Partly Cloudy SCT050 89.6 62.6 41% 90 30.16 0.0
18 15:50 SW 10 G 17 7.00 Fair CLR 89.6 60.8 38% 90 30.16 0.0
18 15:30 SW 12 7.00 Partly Cloudy SCT050 89.6 60.8 38% 90 30.17 0.0
18 15:10 S 10 10.00 Partly Cloudy SCT050 89.6 60.8 38% 90 30.17 0.0
18 14:50 SW 14 10.00 Partly Cloudy SCT050 89.6 59 36% 89 30.17 0.0
18 14:30 W 9 10.00 Partly Cloudy SCT050 89.6 60.8 38% 90 30.17 0.0
18 14:10 SW 10 10.00 Fair CLR 87.8 62.6 43% 88 30.17 0.0
18 13:50 SW 10 10.00 Fair CLR 87.8 62.6 43% 88 30.18 0.0
18 13:30 SW 7 10.00 Fair CLR 86 64.4 49% 87 30.18 0.0
18 13:10 SW 10 10.00 Fair CLR 86 64.4 49% 87 30.18 0.0
18 12:50 SW 6 10.00 Fair CLR 86 64.4 49% 87 30.18 0.0
18 12:30 SW 6 10.00 Fair CLR 86 64.4 49% 87 30.17 0.0
18 12:10 SW 8 10.00 Fair CLR 86 64.4 49% 87 30.17 0.0
18 11:50 SW 9 10.00 Fair CLR 86 64.4 49% 87 30.17 0.0
18 11:30 W 8 10.00 Fair CLR 84.2 66.2 55% 87 30.18 0.0
18 11:10 W 10 G 17 10.00 Fair CLR 84.2 68 58% 87 30.18 0.0
18 10:50 SW 7 10.00 Fair CLR 82.4 66.2 58% 85 30.18 0.0
18 10:30 W 9 10.00 Fair CLR 82.4 66.2 58% 85 30.17 0.0
18 10:10 SW 7 10.00 Fair CLR 80.6 68 66% 83 30.18 0.0
18 09:50 SW 10 10.00 Fair CLR 80.6 68 66% 83 30.17 0.0
18 09:30 W 10 10.00 Fair CLR 80.6 68 66% 83 30.17 0.0
18 09:10 SW 10 G 16 10.00 Fair CLR 80.6 69.8 70% 84 30.16 0.0
18 08:50 SW 9 10.00 Fair CLR 78.8 69.8 74% 81 30.15 0.0
18 08:30 SW 7 10.00 Fair CLR 78.8 71.6 79% 82 30.15 0.0
18 08:10 SW 8 10.00 Fair CLR 77 69.8 79% 79 30.14 0.0
18 07:50 S 5 10.00 Fair CLR 77 71.6 83% 78 30.14 0.0
18 07:30 S 3 10.00 Fair CLR 73.4 71.6 94% 30.13 0.0
18 07:10 S 5 10.00 Fair CLR 73.4 71.6 94% 30.12 0.0
18 06:50 S 5 10.00 Fair CLR 73.4 71.6 94% 30.12 0.0
18 06:30 S 3 10.00 Fair CLR 73.4 71.6 94% 30.11 0.0
18 06:10 SE 3 10.00 Fair CLR 73.4 69.8 89% 30.11 0.0
18 05:50 Calm 10.00 Fair CLR 73.4 69.8 89% 30.11 0.0
18 05:30 Calm 10.00 Fair CLR 73.4 69.8 89% 30.1 0.0
18 05:10 Calm 10.00 Fair CLR 73.4 69.8 89% 30.1 0.0
18 04:50 SW 5 10.00 Fair CLR 73.4 69.8 89% 30.1 0.0
18 04:30 S 3 10.00 Fair CLR 75.2 69.8 83% 75 30.1 0.0
18 04:10 SW 5 10.00 Partly Cloudy SCT046 SCT055 75.2 69.8 83% 75 30.1 0.0
18 03:50 SW 5 10.00 Partly Cloudy SCT046 SCT055 75.2 69.8 83% 75 30.1 0.0
18 03:30 SW 3 10.00 Partly Cloudy SCT049 77 69.8 79% 79 30.1 0.0
18 03:10 Calm 10.00 Fair CLR 77 68 74% 79 30.1 0.0
18 02:50 S 7 10.00 Partly Cloudy SCT050 SCT060 SCT080 77 68 74% 79 30.1 0.0
18 02:40 S 5 10.00 Partly Cloudy SCT060 77 68 74% 79 30.1 0.0
18 01:50 S 6 10.00 Fair CLR 77 68 74% 79 30.1 0.0
18 01:30 S 3 10.00 Fair CLR 77 68 74% 79 30.09 0.0
18 01:10 S 3 10.00 Fair CLR 77 68 74% 79 30.09 0.0
18 00:50 S 5 10.00 Fair CLR 77 68 74% 79 30.09 0.0
18 00:30 S 5 10.00 Fair CLR 78.8 68 70% 81 30.08 0.0
18 00:10 S 6 10.00 Fair CLR 78.8 68 70% 81 30.08 0.0
17 23:50 S 6 10.00 Fair CLR 78.8 68 70% 81 30.07 0.0
17 23:30 S 3 10.00 Fair CLR 78.8 68 70% 81 30.07 0.0
17 23:10 S 7 10.00 Fair CLR 80.6 68 66% 83 30.08 0.0
17 22:50 S 7 10.00 Fair CLR 80.6 68 66% 83 30.07 0.0
17 22:30 S 6 10.00 Fair CLR 80.6 68 66% 83 30.07 0.0
17 22:10 S 6 10.00 Fair CLR 80.6 68 66% 83 30.06 0.0
17 21:50 S 7 7.00 Fair CLR 82.4 68 62% 85 30.05 0.0
17 21:30 S 8 10.00 Fair CLR 82.4 68 62% 85 30.05 0.0
17 21:10 S 7 7.00 Fair CLR 82.4 68 62% 85 30.04 0.0
17 20:50 S 6 7.00 Fair CLR 84.2 68 58% 87 30.04 0.0
17 20:30 S 6 5.00 Fair CLR 86 66.2 52% 88 30.04 0.0
17 20:10 SE 6 7.00 Fair CLR 86 66.2 52% 88 30.04 0.0
17 19:50 S 6 7.00 Fair CLR 87.8 64.4 46% 89 30.04 0.0
17 19:30 S 6 10.00 Fair CLR 87.8 64.4 46% 89 30.03 0.0
Date Time (edt) Wind (mph) Vis. (mi.) Weather Sky Cond. Air Dwpt Max. Min. Relative Humidity Wind Chill (°F) Heat Index (°F) altimeter (in) sea level (mb) 1 hr 3 hr 6 hr
6 hour
Temperature (ºF) Pressure Precipitation (in)